BAW641 LGAV-EGLL

Flight info

Callsign BAW641
Flight time N/A
Altitude 36000
Route KOR UL53 IPTES DCT DIMIS DCT VAKSU DCT ROTAR DCT BORMI DCT RESIA DCT ELMUR L613 HOC DCT LUL DCT RLP DCT ROTSI DCT KOTUN DCT NINAL DCT ABNUR DCT DIMAL DCT ALESO
Aircraft B77W/H-SDE2E3GHIJ3J4J5M1P2RWXYZ/LB1D1

Departure

Time 2026-05-06 08:40
Airport Athens Eleftherios Venizelos International Airport (LGAV)

Arrival

Time N/A
Airport London Heathrow Airport (EGLL)
Time Latitude Longitude Altitude Speed Heading
2026-05-06 08:05 37.93512 23.94763 294 ft 0 kts 310°
2026-05-06 08:30 37.93503 23.94775 295 ft 3 kts 310°
2026-05-06 08:30 37.93491 23.94795 295 ft 3 kts 303°
2026-05-06 08:31 37.93480 23.94817 294 ft 3 kts 296°
2026-05-06 08:31 37.93472 23.94840 294 ft 3 kts 289°
2026-05-06 08:31 37.93467 23.94865 292 ft 3 kts 280°
2026-05-06 08:31 37.93465 23.94875 291 ft 0 kts 278°
2026-05-06 08:35 37.93466 23.94871 291 ft 3 kts 277°
2026-05-06 08:35 37.93440 23.94818 294 ft 11 kts 218°
2026-05-06 08:35 37.93374 23.94756 293 ft 12 kts 214°
2026-05-06 08:36 37.93307 23.94693 294 ft 12 kts 218°
2026-05-06 08:36 37.93240 23.94629 295 ft 12 kts 213°
2026-05-06 08:36 37.93163 23.94601 296 ft 12 kts 187°
2026-05-06 08:36 37.93087 23.94619 296 ft 12 kts 142°
2026-05-06 08:37 37.93040 23.94678 295 ft 7 kts 164°
2026-05-06 08:37 37.92993 23.94653 297 ft 10 kts 214°
2026-05-06 08:37 37.92887 23.94556 296 ft 22 kts 217°
2026-05-06 08:37 37.92764 23.94438 300 ft 22 kts 217°
2026-05-06 08:38 37.92641 23.94320 301 ft 22 kts 217°
2026-05-06 08:38 37.92530 23.94215 302 ft 17 kts 217°
2026-05-06 08:38 37.92461 23.94160 298 ft 7 kts 187°
2026-05-06 08:38 37.92422 23.94196 302 ft 7 kts 115°
2026-05-06 08:39 37.92415 23.94263 300 ft 8 kts 91°
2026-05-06 08:39 37.92415 23.94347 300 ft 9 kts 89°
2026-05-06 08:39 37.92448 23.94418 302 ft 17 kts 37°
2026-05-06 08:39 37.92714 23.94670 297 ft 88 kts 37°
2026-05-06 08:40 37.93398 23.95317 288 ft 158 kts 37°
2026-05-06 08:40 37.94382 23.96253 653 ft 181 kts 37°
2026-05-06 08:40 37.95392 23.97210 1450 ft 185 kts 38°
2026-05-06 08:40 37.96478 23.98235 1869 ft 208 kts 37°
2026-05-06 08:41 37.97723 23.99414 2087 ft 240 kts 36°
2026-05-06 08:41 37.99141 24.00735 2611 ft 257 kts 36°
2026-05-06 08:41 38.00505 24.02079 3916 ft 241 kts 37°
2026-05-06 08:41 38.01846 24.03407 4700 ft 250 kts 36°
2026-05-06 08:42 38.03222 24.04768 5374 ft 258 kts 37°
2026-05-06 08:42 38.04742 24.06000 6090 ft 261 kts 18°
2026-05-06 08:42 38.06544 24.06356 6708 ft 272 kts 354°
2026-05-06 08:42 38.08379 24.05679 7372 ft 276 kts 330°
2026-05-06 08:43 38.09878 24.04131 8103 ft 282 kts 310°
2026-05-06 08:43 38.11076 24.02136 8914 ft 286 kts 306°
2026-05-06 08:43 38.12219 24.00084 9905 ft 283 kts 305°
2026-05-06 08:43 38.13329 23.98022 10762 ft 285 kts 305°
2026-05-06 08:44 38.14476 23.95889 11309 ft 300 kts 305°
2026-05-06 08:44 38.15698 23.93606 11665 ft 324 kts 304°
2026-05-06 08:44 38.16981 23.91168 12239 ft 341 kts 304°
2026-05-06 08:44 38.18327 23.88634 12839 ft 358 kts 305°
2026-05-06 08:45 38.19750 23.85973 13743 ft 365 kts 305°
2026-05-06 08:45 38.21173 23.83305 14952 ft 359 kts 305°
2026-05-06 08:45 38.22565 23.80679 16065 ft 361 kts 305°
2026-05-06 08:45 38.24012 23.77967 16550 ft 379 kts 305°
2026-05-06 08:46 38.25525 23.75177 17445 ft 382 kts 306°
2026-05-06 08:46 38.27018 23.72431 18882 ft 368 kts 306°
2026-05-06 08:46 38.28415 23.69851 20384 ft 352 kts 306°
2026-05-06 08:46 38.29801 23.67280 21311 ft 357 kts 305°
2026-05-06 08:47 38.31243 23.64584 21504 ft 379 kts 305°
2026-05-06 08:47 38.32756 23.61745 21827 ft 395 kts 305°
2026-05-06 08:47 38.34317 23.58809 22353 ft 405 kts 305°
2026-05-06 08:47 38.35905 23.55816 23040 ft 410 kts 305°
2026-05-06 08:48 38.37539 23.52813 23786 ft 413 kts 308°
2026-05-06 08:48 38.39443 23.50058 24422 ft 416 kts 316°
2026-05-06 08:48 38.41529 23.47490 25055 ft 418 kts 316°
2026-05-06 08:48 38.43618 23.44890 25672 ft 421 kts 316°
2026-05-06 08:49 38.45724 23.42243 26202 ft 425 kts 316°
2026-05-06 08:49 38.47844 23.39563 26725 ft 431 kts 316°
2026-05-06 08:49 38.49967 23.36867 27269 ft 433 kts 316°
2026-05-06 08:49 38.52084 23.34173 27811 ft 437 kts 315°
2026-05-06 08:50 38.54244 23.31419 28325 ft 440 kts 315°
2026-05-06 08:50 38.56423 23.28638 28879 ft 443 kts 315°
2026-05-06 08:50 38.58610 23.25844 29368 ft 446 kts 315°
2026-05-06 08:50 38.60812 23.23029 29814 ft 449 kts 315°
2026-05-06 08:51 38.63028 23.20194 30238 ft 452 kts 315°
2026-05-06 08:51 38.65261 23.17334 30709 ft 452 kts 315°
2026-05-06 08:51 38.67476 23.14495 31300 ft 448 kts 315°
2026-05-06 08:51 38.69670 23.11680 31893 ft 445 kts 315°
2026-05-06 08:52 38.71827 23.08910 32394 ft 444 kts 315°
2026-05-06 08:52 38.74013 23.06102 32829 ft 444 kts 315°
2026-05-06 08:52 38.76195 23.03294 33313 ft 443 kts 315°
2026-05-06 08:52 38.78364 23.00502 33812 ft 441 kts 315°
2026-05-06 08:53 38.80526 22.97716 34311 ft 439 kts 314°
2026-05-06 08:53 38.82675 22.94944 34704 ft 437 kts 314°
2026-05-06 08:53 38.84817 22.92179 35080 ft 437 kts 314°
2026-05-06 08:53 38.86955 22.89416 35439 ft 436 kts 314°
2026-05-06 08:54 38.89086 22.86660 35823 ft 434 kts 314°
2026-05-06 08:54 38.91214 22.83905 36099 ft 436 kts 314°
2026-05-06 08:54 38.93363 22.81119 36071 ft 440 kts 314°
2026-05-06 08:55 38.97661 22.75542 36060 ft 436 kts 314°
2026-05-06 08:55 39.01897 22.70038 36079 ft 437 kts 314°
2026-05-06 08:56 39.06171 22.64469 36074 ft 438 kts 314°
2026-05-06 08:56 39.10457 22.58878 36087 ft 438 kts 314°
2026-05-06 08:57 39.14740 22.53281 36077 ft 438 kts 314°
2026-05-06 08:57 39.19026 22.47668 36065 ft 438 kts 314°
2026-05-06 08:58 39.23274 22.42096 36060 ft 437 kts 314°
2026-05-06 08:58 39.27534 22.36498 36066 ft 437 kts 314°
2026-05-06 08:59 39.31789 22.30895 36063 ft 437 kts 314°
2026-05-06 08:59 39.36045 22.25281 36069 ft 437 kts 314°
2026-05-06 09:00 39.40295 22.19664 36073 ft 437 kts 313°
2026-05-06 09:00 39.44547 22.14034 36072 ft 437 kts 313°
2026-05-06 09:01 39.48766 22.08438 36070 ft 437 kts 313°
2026-05-06 09:01 39.53020 22.02784 36071 ft 438 kts 313°
2026-05-06 09:02 39.57279 21.97115 36066 ft 439 kts 313°
2026-05-06 09:02 39.61534 21.91437 36072 ft 439 kts 313°
2026-05-06 09:03 39.65793 21.85746 36068 ft 440 kts 313°
2026-05-06 09:03 39.70056 21.80038 36080 ft 440 kts 313°
2026-05-06 09:04 39.74294 21.74353 36073 ft 440 kts 313°
2026-05-06 09:04 39.78554 21.68626 36074 ft 441 kts 313°
2026-05-06 09:05 39.82829 21.62870 36075 ft 441 kts 313°
2026-05-06 09:05 39.87062 21.57159 36073 ft 441 kts 313°
2026-05-06 09:06 39.91316 21.51409 36092 ft 441 kts 313°
2026-05-06 09:06 39.95573 21.45643 36090 ft 441 kts 313°
2026-05-06 09:07 39.99825 21.39874 36092 ft 441 kts 313°
2026-05-06 09:07 40.04088 21.34079 36086 ft 441 kts 313°
2026-05-06 09:08 40.08329 21.28302 36089 ft 440 kts 313°
2026-05-06 09:08 40.12535 21.22560 36093 ft 440 kts 313°
2026-05-06 09:09 40.16769 21.16772 36092 ft 440 kts 313°
2026-05-06 09:09 40.20999 21.10977 36100 ft 439 kts 312°
2026-05-06 09:10 40.24505 21.06165 36107 ft 439 kts 312°
2026-05-06 09:10 40.28724 21.00363 36093 ft 440 kts 312°
2026-05-06 09:11 40.32944 20.94550 36105 ft 440 kts 312°
2026-05-06 09:11 40.37164 20.88725 36091 ft 440 kts 312°
2026-05-06 09:12 40.41385 20.82888 36107 ft 440 kts 312°
2026-05-06 09:12 40.45578 20.77079 36099 ft 441 kts 312°
2026-05-06 09:13 40.49799 20.71219 36106 ft 442 kts 312°
2026-05-06 09:13 40.54032 20.65331 36103 ft 443 kts 312°
2026-05-06 09:14 40.58263 20.59434 36098 ft 443 kts 311°
2026-05-06 09:14 40.62487 20.53534 36116 ft 442 kts 311°
2026-05-06 09:15 40.66682 20.47663 36100 ft 442 kts 311°
2026-05-06 09:15 40.70897 20.41755 36103 ft 442 kts 311°
2026-05-06 09:16 40.75110 20.35836 36105 ft 442 kts 311°
2026-05-06 09:16 40.79323 20.29906 36118 ft 442 kts 311°
2026-05-06 09:17 40.83534 20.23967 36104 ft 443 kts 311°
2026-05-06 09:17 40.87720 20.18051 36109 ft 443 kts 311°
2026-05-06 09:18 40.91959 20.12046 36105 ft 450 kts 311°
2026-05-06 09:18 40.96262 20.05940 36108 ft 456 kts 311°
2026-05-06 09:19 41.00609 19.99759 36105 ft 459 kts 311°
2026-05-06 09:19 41.04956 19.93566 36103 ft 459 kts 311°
2026-05-06 09:20 41.09297 19.87370 36108 ft 457 kts 311°
2026-05-06 09:20 41.13612 19.81196 36103 ft 454 kts 311°
2026-05-06 09:21 41.17875 19.75084 36103 ft 453 kts 310°
2026-05-06 09:21 41.22131 19.68970 36103 ft 453 kts 310°
2026-05-06 09:22 41.26395 19.62829 36105 ft 452 kts 310°
2026-05-06 09:22 41.30662 19.56674 36110 ft 453 kts 310°
2026-05-06 09:23 41.34911 19.50530 36114 ft 454 kts 310°
2026-05-06 09:23 41.38822 19.44865 36108 ft 454 kts 310°
2026-05-06 09:24 41.42985 19.38823 36115 ft 455 kts 310°
2026-05-06 09:24 41.46119 19.34264 36114 ft 455 kts 310°
2026-05-06 09:25 41.49353 19.29553 36107 ft 456 kts 310°
2026-05-06 09:25 41.52248 19.25331 36110 ft 456 kts 310°
2026-05-06 09:26 41.54929 19.21414 36114 ft 456 kts 310°
2026-05-06 09:26 41.57342 19.17883 36112 ft 456 kts 310°
2026-05-06 09:27 41.60246 19.13630 36108 ft 456 kts 310°
2026-05-06 09:27 41.63098 19.09449 36119 ft 457 kts 310°
2026-05-06 09:28 41.66398 19.04605 36112 ft 457 kts 310°
2026-05-06 09:28 41.70217 18.98987 36111 ft 457 kts 310°
2026-05-06 09:29 41.74423 18.92788 36105 ft 456 kts 310°
2026-05-06 09:29 41.78599 18.86620 36112 ft 456 kts 310°
2026-05-06 09:30 41.82785 18.80423 36104 ft 456 kts 310°
2026-05-06 09:30 41.86995 18.74178 36103 ft 456 kts 309°
2026-05-06 09:31 41.91182 18.67950 36108 ft 457 kts 309°
2026-05-06 09:31 41.95273 18.61855 36102 ft 458 kts 309°
2026-05-06 09:32 41.99420 18.55664 36100 ft 458 kts 309°
2026-05-06 09:32 42.03483 18.49540 36097 ft 458 kts 308°
2026-05-06 09:33 42.07432 18.43400 36100 ft 458 kts 308°
2026-05-06 09:33 42.11121 18.37619 36090 ft 459 kts 308°
2026-05-06 09:34 42.14771 18.31900 36109 ft 459 kts 308°
2026-05-06 09:34 42.18444 18.26152 36103 ft 460 kts 308°
2026-05-06 09:35 42.22031 18.20532 36092 ft 460 kts 308°
2026-05-06 09:35 42.25997 18.14308 36090 ft 460 kts 308°
2026-05-06 09:36 42.30108 18.07842 36095 ft 460 kts 308°
2026-05-06 09:36 42.34260 18.01298 36091 ft 460 kts 307°
2026-05-06 09:37 42.38420 17.94725 36091 ft 460 kts 307°
2026-05-06 09:37 42.42439 17.88361 36097 ft 459 kts 307°
2026-05-06 09:38 42.46584 17.81784 36084 ft 459 kts 307°
2026-05-06 09:38 42.50729 17.75190 36082 ft 459 kts 307°
2026-05-06 09:39 42.54869 17.68592 36074 ft 459 kts 307°
2026-05-06 09:39 42.59007 17.61981 36077 ft 460 kts 307°
2026-05-06 09:40 42.63143 17.55358 36076 ft 460 kts 307°
2026-05-06 09:40 42.69355 17.45382 36068 ft 461 kts 307°
2026-05-06 09:41 42.73476 17.38747 36078 ft 461 kts 307°
2026-05-06 09:41 42.77612 17.32072 36063 ft 461 kts 307°
2026-05-06 09:42 42.81737 17.25399 36062 ft 460 kts 306°
2026-05-06 09:42 42.85860 17.18714 36062 ft 460 kts 306°
2026-05-06 09:43 42.89950 17.12069 36062 ft 460 kts 306°
2026-05-06 09:43 42.94059 17.05376 36077 ft 460 kts 307°
2026-05-06 09:44 42.98168 16.98669 36064 ft 461 kts 306°
2026-05-06 09:44 43.02282 16.91937 36069 ft 461 kts 306°
2026-05-06 09:45 43.06391 16.85198 36058 ft 461 kts 306°
2026-05-06 09:45 43.10502 16.78442 36039 ft 461 kts 306°
2026-05-06 09:46 43.14576 16.71730 36046 ft 462 kts 306°
2026-05-06 09:46 43.18681 16.64949 36038 ft 462 kts 306°
2026-05-06 09:47 43.22787 16.58153 36031 ft 462 kts 306°
2026-05-06 09:47 43.26880 16.51364 36030 ft 462 kts 306°
2026-05-06 09:48 43.30979 16.44548 36037 ft 462 kts 306°
2026-05-06 09:48 43.35053 16.37758 36022 ft 463 kts 306°
2026-05-06 09:49 43.39142 16.30927 36036 ft 463 kts 306°
2026-05-06 09:49 43.43232 16.24078 36020 ft 462 kts 305°
2026-05-06 09:50 43.47309 16.17235 36032 ft 462 kts 305°
2026-05-06 09:50 43.51378 16.10389 36021 ft 462 kts 305°
2026-05-06 09:51 43.55444 16.03533 36017 ft 461 kts 305°
2026-05-06 09:51 43.59498 15.96679 36020 ft 461 kts 305°
2026-05-06 09:52 43.63526 15.89853 36003 ft 461 kts 305°
2026-05-06 09:52 43.67575 15.82976 35999 ft 461 kts 304°
2026-05-06 09:53 43.71621 15.76089 35998 ft 461 kts 304°
2026-05-06 09:53 43.75658 15.69199 35994 ft 461 kts 304°
2026-05-06 09:54 43.79702 15.62281 36011 ft 461 kts 304°
2026-05-06 09:54 43.83730 15.55376 36007 ft 462 kts 304°
2026-05-06 09:55 43.87771 15.48430 36005 ft 463 kts 304°
2026-05-06 09:55 43.91795 15.41497 36010 ft 464 kts 304°
2026-05-06 09:56 43.95842 15.34508 36023 ft 464 kts 304°
2026-05-06 09:56 43.99894 15.27495 36423 ft 465 kts 304°
2026-05-06 09:57 44.01920 15.23980 36779 ft 464 kts 304°
2026-05-06 09:57 44.03930 15.20491 37142 ft 463 kts 304°
2026-05-06 09:57 44.05262 15.18175 37341 ft 462 kts 303°
2026-05-06 09:57 44.07269 15.14685 37657 ft 462 kts 303°
2026-05-06 09:58 44.09278 15.11184 37921 ft 463 kts 303°
2026-05-06 09:58 44.11293 15.07667 37957 ft 466 kts 303°
2026-05-06 09:58 44.15325 15.00620 37994 ft 466 kts 303°
2026-05-06 09:59 44.19335 14.93607 37984 ft 458 kts 303°
2026-05-06 09:59 44.23291 14.86663 37985 ft 456 kts 303°
2026-05-06 10:00 44.27206 14.79767 38003 ft 455 kts 303°
2026-05-06 10:00 44.31133 14.72835 38008 ft 455 kts 303°
2026-05-06 10:01 44.35068 14.65875 38004 ft 457 kts 303°
2026-05-06 10:01 44.38914 14.59056 37977 ft 458 kts 303°
2026-05-06 10:02 44.42866 14.52033 38010 ft 460 kts 303°
2026-05-06 10:02 44.46825 14.44982 38019 ft 461 kts 303°
2026-05-06 10:03 44.50785 14.37910 38008 ft 461 kts 303°
2026-05-06 10:03 44.54711 14.30884 37996 ft 459 kts 303°
2026-05-06 10:04 44.58640 14.23835 37982 ft 458 kts 303°
2026-05-06 10:04 44.62547 14.16808 37985 ft 456 kts 302°
2026-05-06 10:05 44.66440 14.09787 38018 ft 454 kts 302°
2026-05-06 10:05 44.70320 14.02771 37991 ft 454 kts 302°
2026-05-06 10:06 44.74188 13.95761 37997 ft 452 kts 302°
2026-05-06 10:06 44.78016 13.88806 38000 ft 452 kts 302°
2026-05-06 10:07 44.81860 13.81806 37991 ft 452 kts 302°
2026-05-06 10:07 44.85699 13.74799 37988 ft 452 kts 302°
2026-05-06 10:08 44.89532 13.67784 37984 ft 451 kts 301°
2026-05-06 10:08 44.93342 13.60794 37984 ft 451 kts 301°
2026-05-06 10:09 44.97089 13.53902 37976 ft 451 kts 301°
2026-05-06 10:09 45.00919 13.46842 37965 ft 452 kts 301°
2026-05-06 10:10 45.04717 13.39823 37951 ft 452 kts 301°
2026-05-06 10:10 45.08539 13.32741 37953 ft 453 kts 301°
2026-05-06 10:11 45.12345 13.25672 37934 ft 453 kts 301°
2026-05-06 10:11 45.16171 13.18550 37932 ft 453 kts 301°
2026-05-06 10:12 45.19986 13.11428 37941 ft 454 kts 301°
2026-05-06 10:12 45.23785 13.04320 37923 ft 455 kts 300°
2026-05-06 10:13 45.27471 12.97062 37922 ft 450 kts 296°
2026-05-06 10:13 45.30766 12.89493 37922 ft 450 kts 295°
2026-05-06 10:14 45.34028 12.81893 37950 ft 452 kts 295°
2026-05-06 10:14 45.37332 12.74222 37925 ft 455 kts 295°
2026-05-06 10:15 45.40640 12.66560 37928 ft 454 kts 295°
2026-05-06 10:15 45.43921 12.58951 37931 ft 453 kts 295°
2026-05-06 10:16 45.47210 12.51299 37964 ft 452 kts 295°
2026-05-06 10:16 45.50486 12.43657 37950 ft 451 kts 295°
2026-05-06 10:17 45.53758 12.36001 37940 ft 451 kts 295°
2026-05-06 10:17 45.57018 12.28350 37955 ft 451 kts 294°
2026-05-06 10:18 45.60282 12.20667 37954 ft 454 kts 295°
2026-05-06 10:18 45.63564 12.12922 37945 ft 457 kts 294°
2026-05-06 10:19 45.66860 12.05126 37952 ft 459 kts 294°
2026-05-06 10:19 45.70135 11.97361 37931 ft 458 kts 294°
2026-05-06 10:20 45.73431 11.89524 37927 ft 456 kts 294°
2026-05-06 10:20 45.76677 11.81780 37931 ft 456 kts 295°
2026-05-06 10:21 45.79932 11.73991 37939 ft 456 kts 295°
2026-05-06 10:21 45.83191 11.66173 37936 ft 456 kts 295°
2026-05-06 10:22 45.86445 11.58344 37926 ft 458 kts 294°
2026-05-06 10:22 45.89705 11.50477 37936 ft 460 kts 294°
2026-05-06 10:23 45.92960 11.42601 37915 ft 461 kts 295°
2026-05-06 10:23 45.96222 11.34690 37936 ft 460 kts 294°
2026-05-06 10:24 45.99471 11.26785 37920 ft 459 kts 294°
2026-05-06 10:24 46.02718 11.18863 37945 ft 459 kts 294°
2026-05-06 10:25 46.05939 11.10916 37933 ft 460 kts 294°
2026-05-06 10:25 46.09133 11.02914 37939 ft 460 kts 294°
2026-05-06 10:26 46.12320 10.94900 37942 ft 461 kts 294°
2026-05-06 10:26 46.15495 10.86905 37934 ft 459 kts 294°
2026-05-06 10:27 46.18669 10.78896 37972 ft 461 kts 294°
2026-05-06 10:27 46.21849 10.70847 37931 ft 464 kts 294°
2026-05-06 10:28 46.25051 10.62730 37896 ft 466 kts 294°
2026-05-06 10:28 46.28249 10.54601 37876 ft 464 kts 294°
2026-05-06 10:29 46.31427 10.46489 37865 ft 463 kts 294°
2026-05-06 10:29 46.34593 10.38385 37884 ft 463 kts 294°
2026-05-06 10:30 46.37743 10.30288 37856 ft 463 kts 294°
2026-05-06 10:30 46.40916 10.22116 37841 ft 465 kts 294°
2026-05-06 10:31 46.44077 10.13955 37868 ft 465 kts 294°
2026-05-06 10:31 46.47282 10.05856 37861 ft 468 kts 298°
2026-05-06 10:32 46.51299 9.98354 37863 ft 472 kts 306°
2026-05-06 10:32 46.55692 9.91244 37864 ft 472 kts 307°
2026-05-06 10:33 46.60074 9.84115 37861 ft 473 kts 306°
2026-05-06 10:33 46.64432 9.76946 37846 ft 473 kts 306°
2026-05-06 10:34 46.68780 9.69746 37832 ft 474 kts 306°
2026-05-06 10:34 46.73104 9.62560 37820 ft 475 kts 306°
2026-05-06 10:35 46.77465 9.55301 37814 ft 477 kts 306°
2026-05-06 10:35 46.81851 9.47972 37806 ft 480 kts 306°
2026-05-06 10:36 46.86246 9.40621 37841 ft 481 kts 306°
2026-05-06 10:36 46.90648 9.33238 37801 ft 482 kts 307°
2026-05-06 10:37 46.95041 9.25853 37792 ft 480 kts 306°
2026-05-06 10:37 46.99379 9.18523 37815 ft 479 kts 306°
2026-05-06 10:38 47.03748 9.11130 37819 ft 479 kts 306°
2026-05-06 10:38 47.08113 9.03723 37819 ft 481 kts 306°
2026-05-06 10:39 47.12484 8.96274 37818 ft 480 kts 305°
2026-05-06 10:39 47.16128 8.88174 37827 ft 473 kts 293°
2026-05-06 10:40 47.18668 8.79338 37831 ft 470 kts 285°
2026-05-06 10:40 47.20879 8.70293 37844 ft 470 kts 286°
2026-05-06 10:41 47.23145 8.61327 37837 ft 470 kts 286°
2026-05-06 10:41 47.25414 8.52343 37833 ft 470 kts 286°
2026-05-06 10:42 47.27686 8.43310 37830 ft 470 kts 286°
2026-05-06 10:42 47.29958 8.34278 37834 ft 470 kts 285°
2026-05-06 10:43 47.32220 8.25239 37845 ft 470 kts 286°
2026-05-06 10:44 47.35606 8.11637 37843 ft 471 kts 285°
2026-05-06 10:44 47.37848 8.02588 37840 ft 471 kts 285°
2026-05-06 10:45 47.39727 7.94982 37837 ft 471 kts 285°
2026-05-06 10:45 47.41969 7.85865 37843 ft 471 kts 285°
2026-05-06 10:46 47.44198 7.76765 37853 ft 471 kts 285°
2026-05-06 10:46 47.46408 7.67694 37840 ft 470 kts 284°
2026-05-06 10:47 47.48084 7.58681 37867 ft 466 kts 279°
2026-05-06 10:47 47.49522 7.49843 37847 ft 466 kts 279°
2026-05-06 10:48 47.51043 7.40496 37845 ft 469 kts 279°
2026-05-06 10:48 47.52584 7.31107 37831 ft 471 kts 279°
2026-05-06 10:49 47.54123 7.21737 37846 ft 473 kts 279°
2026-05-06 10:49 47.55701 7.12286 37836 ft 473 kts 284°
2026-05-06 10:49 47.57143 7.07866 37690 ft 480 kts 302°
2026-05-06 10:50 47.59451 7.04282 37323 ft 483 kts 319°
2026-05-06 10:50 47.62352 7.01726 36570 ft 491 kts 334°
2026-05-06 10:50 47.65662 7.00224 35619 ft 504 kts 348°
2026-05-06 10:50 47.69184 6.99925 35169 ft 510 kts
2026-05-06 10:51 47.72690 7.00813 35016 ft 518 kts 16°
2026-05-06 10:51 47.75994 7.02876 34854 ft 525 kts 31°
2026-05-06 10:51 47.78902 7.06181 34842 ft 525 kts 47°
2026-05-06 10:51 47.81148 7.10407 34793 ft 518 kts 62°
2026-05-06 10:52 47.82594 7.15206 34522 ft 502 kts 78°
2026-05-06 10:52 47.83161 7.20235 33963 ft 489 kts 93°
2026-05-06 10:52 47.82870 7.25242 32869 ft 483 kts 108°
2026-05-06 10:52 47.81755 7.29906 31853 ft 476 kts 122°
2026-05-06 10:53 47.80035 7.34071 30957 ft 470 kts 130°
2026-05-06 10:53 47.77945 7.37761 30128 ft 464 kts 138°
2026-05-06 10:53 47.75402 7.40606 29389 ft 451 kts 154°
2026-05-06 10:53 47.72615 7.42627 28722 ft 443 kts 156°
2026-05-06 10:54 47.69881 7.44662 28009 ft 438 kts 154°
2026-05-06 10:54 47.67198 7.46781 27266 ft 434 kts 153°
2026-05-06 10:54 47.64733 7.49323 26368 ft 435 kts 139°
2026-05-06 10:54 47.62796 7.52811 25623 ft 439 kts 125°
2026-05-06 10:55 47.61486 7.56890 24946 ft 440 kts 112°
2026-05-06 10:55 47.60548 7.61215 24199 ft 441 kts 110°
2026-05-06 10:55 47.59616 7.65527 23543 ft 439 kts 111°
2026-05-06 10:55 47.58644 7.69801 22901 ft 435 kts 112°
2026-05-06 10:56 47.57660 7.74000 22289 ft 429 kts 112°
2026-05-06 10:56 47.56703 7.78050 21443 ft 416 kts 112°
2026-05-06 10:56 47.55748 7.82085 20341 ft 412 kts 112°
2026-05-06 10:56 47.54805 7.86065 19209 ft 410 kts 112°
2026-05-06 10:57 47.53865 7.90038 18616 ft 406 kts 112°
2026-05-06 10:57 47.52934 7.93969 18065 ft 404 kts 112°
2026-05-06 10:57 47.52019 7.97877 17457 ft 398 kts 109°
2026-05-06 10:57 47.51658 8.01917 16883 ft 399 kts 88°
2026-05-06 10:58 47.52284 8.05893 16560 ft 395 kts 71°
2026-05-06 10:58 47.53606 8.09461 15882 ft 399 kts 52°
2026-05-06 10:58 47.55440 8.12502 15325 ft 391 kts 49°
2026-05-06 10:58 47.56904 8.15803 14758 ft 382 kts 70°
2026-05-06 10:59 47.57420 8.19608 14245 ft 376 kts 91°
2026-05-06 10:59 47.57036 8.23409 13729 ft 371 kts 110°
2026-05-06 10:59 47.55908 8.26790 13169 ft 366 kts 127°
2026-05-06 10:59 47.54274 8.29584 12633 ft 361 kts 140°
2026-05-06 11:00 47.52199 8.31598 12071 ft 356 kts 155°
2026-05-06 11:00 47.49932 8.33083 11491 ft 355 kts 157°
2026-05-06 11:00 47.47688 8.34557 11001 ft 353 kts 158°
2026-05-06 11:00 47.45484 8.36050 10773 ft 343 kts 156°
2026-05-06 11:01 47.43356 8.37517 10634 ft 332 kts 156°
2026-05-06 11:01 47.41299 8.38942 10487 ft 321 kts 156°
2026-05-06 11:01 47.39313 8.40317 10354 ft 316 kts 156°
2026-05-06 11:01 47.37312 8.41697 10246 ft 316 kts 156°
2026-05-06 11:02 47.35338 8.43059 10092 ft 308 kts 156°
2026-05-06 11:02 47.33431 8.44374 9966 ft 298 kts 156°
2026-05-06 11:02 47.31582 8.45649 9833 ft 289 kts 156°
2026-05-06 11:02 47.29767 8.46898 9506 ft 287 kts 156°
2026-05-06 11:03 47.27961 8.48139 9185 ft 285 kts 156°
2026-05-06 11:03 47.26172 8.49370 8879 ft 283 kts 156°
2026-05-06 11:03 47.24395 8.50590 8535 ft 281 kts 156°
2026-05-06 11:03 47.22633 8.51802 8227 ft 276 kts 156°
2026-05-06 11:04 47.20948 8.52969 7965 ft 267 kts 157°
2026-05-06 11:04 47.19506 8.54641 7588 ft 265 kts 127°
2026-05-06 11:04 47.18806 8.57107 7464 ft 258 kts 99°
2026-05-06 11:04 47.18787 8.59717 7179 ft 257 kts 80°
2026-05-06 11:05 47.19393 8.62150 6893 ft 252 kts 64°
2026-05-06 11:05 47.20159 8.64482 6639 ft 252 kts 65°
2026-05-06 11:05 47.20892 8.66756 6543 ft 243 kts 63°
2026-05-06 11:05 47.21946 8.68633 6441 ft 237 kts 32°
2026-05-06 11:06 47.23469 8.69353 6273 ft 231 kts 359°
2026-05-06 11:06 47.25024 8.68877 5929 ft 226 kts 339°
2026-05-06 11:06 47.26479 8.68043 5636 ft 224 kts 334°
2026-05-06 11:06 47.27872 8.67123 5369 ft 219 kts 333°
2026-05-06 11:07 47.29236 8.66189 5092 ft 211 kts 333°
2026-05-06 11:07 47.30543 8.65292 4832 ft 204 kts 332°
2026-05-06 11:07 47.31807 8.64424 4547 ft 197 kts 332°
2026-05-06 11:07 47.33004 8.63603 4279 ft 187 kts 333°
2026-05-06 11:08 47.34147 8.62821 3972 ft 174 kts 332°
2026-05-06 11:08 47.35127 8.62148 3760 ft 168 kts 332°
2026-05-06 11:08 47.35946 8.61585 3570 ft 163 kts 332°
2026-05-06 11:08 47.36886 8.60939 3334 ft 157 kts 332°
2026-05-06 11:09 47.37866 8.60262 3100 ft 156 kts 332°
2026-05-06 11:09 47.38746 8.59647 2881 ft 155 kts 332°
2026-05-06 11:09 47.39577 8.59074 2674 ft 152 kts 333°
2026-05-06 11:09 47.40259 8.58615 2516 ft 154 kts 332°
2026-05-06 11:10 47.41131 8.57999 2324 ft 159 kts 334°
2026-05-06 11:10 47.42087 8.57375 2129 ft 159 kts 332°
2026-05-06 11:10 47.42656 8.56957 1974 ft 160 kts 334°
2026-05-06 11:10 47.43065 8.56689 1873 ft 158 kts 335°
2026-05-06 11:11 47.43566 8.56353 1733 ft 157 kts 333°
2026-05-06 11:11 47.44137 8.55959 1608 ft 156 kts 332°
2026-05-06 11:11 47.44449 8.55742 1525 ft 155 kts 333°
2026-05-06 11:11 47.44911 8.55427 1446 ft 153 kts 333°
2026-05-06 11:12 47.45533 8.55001 1410 ft 143 kts 331°
2026-05-06 11:12 47.46248 8.54504 1410 ft 103 kts 335°
2026-05-06 11:12 47.46683 8.54203 1404 ft 52 kts 335°
2026-05-06 11:12 47.46843 8.54094 1410 ft 12 kts 336°
2026-05-06 11:13 47.46872 8.54074 1410 ft 10 kts 336°
2026-05-06 11:13 47.46960 8.54021 1407 ft 12 kts 348°
2026-05-06 11:13 47.46991 8.54027 1411 ft 12 kts 25°
2026-05-06 11:13 47.47019 8.54102 1411 ft 13 kts 79°
2026-05-06 11:14 47.46997 8.54225 1406 ft 13 kts 127°
2026-05-06 11:14 47.46932 8.54314 1412 ft 13 kts 142°
2026-05-06 11:14 47.46843 8.54387 1408 ft 16 kts 155°
2026-05-06 11:14 47.46738 8.54447 1404 ft 16 kts 159°
2026-05-06 11:15 47.46635 8.54516 1403 ft 16 kts 154°
2026-05-06 11:15 47.46534 8.54588 1406 ft 16 kts 155°
2026-05-06 11:15 47.46431 8.54658 1404 ft 16 kts 155°
2026-05-06 11:15 47.46329 8.54729 1410 ft 16 kts 158°
2026-05-06 11:16 47.46226 8.54797 1411 ft 16 kts 153°
2026-05-06 11:16 47.46125 8.54868 1407 ft 16 kts 155°
2026-05-06 11:16 47.46023 8.54938 1410 ft 16 kts 154°
2026-05-06 11:16 47.45920 8.55008 1407 ft 16 kts 155°
2026-05-06 11:17 47.45818 8.55078 1408 ft 16 kts 154°
2026-05-06 11:17 47.45716 8.55149 1408 ft 16 kts 155°
2026-05-06 11:17 47.45614 8.55221 1406 ft 16 kts 155°
2026-05-06 11:17 47.45514 8.55291 1406 ft 16 kts 155°
2026-05-06 11:18 47.45412 8.55362 1409 ft 16 kts 154°
2026-05-06 11:18 47.45335 8.55424 1412 ft 9 kts 140°
2026-05-06 11:18 47.45299 8.55499 1409 ft 9 kts 121°
2026-05-06 11:18 47.45275 8.55585 1405 ft 9 kts 100°
2026-05-06 11:19 47.45268 8.55678 1402 ft 9 kts 96°
2026-05-06 11:19 47.45261 8.55770 1402 ft 9 kts 96°
2026-05-06 11:19 47.45255 8.55856 1408 ft 4 kts 96°
2026-05-06 11:19 47.45236 8.55887 1410 ft 4 kts 141°
2026-05-06 11:20 47.45210 8.55904 1408 ft 4 kts 175°
2026-05-06 11:20 47.45183 8.55900 1406 ft 0 kts 186°
2026-05-06 11:20 47.45178 8.55899 1407 ft 1 kts 185°